Regional Weather Roundup
Issued by NWS Goodland, KS

Home | Current Version | Previous Version | Graphics & Text | Print | Product List | Glossary On
Versions: 1 2 3 4 5 6 7 8 9 10 11 12 13 14 15 16 17 18 19 20 21 22 23 24 25 26 27 28 29 30 31 32 33 34 35 36 37 38 39 40 41 42 43 44 45 46 47 48 49 50
000
ASUS43 KGLD 211008
RWRGLD

GOODLAND FORECAST AREA HOURLY WEATHER ROUNDUP
NATIONAL WEATHER SERVICE GOODLAND KS
300 AM MST WED FEB 21 2018

...OFFICIAL OBSERVATIONS...

CITY           SKY/WX    TMP DP  RH WIND       PRES   REMARKS
GOODLAND KS    CLEAR      1  -4  79 W5        30.31F
HILL CITY KS   CLOUDY    12   5  73 NE3       30.46F
IMPERIAL NEB   CLEAR      4  -2  76 W5        30.34F
MCCOOK NEB     PTCLDY     2  -2  83 CALM      30.42F
AKRON CO       CLEAR      7  -1  70 SW10      30.22F WCI  -8
BURLINGTON CO  CLEAR     -8 -12  83 W9        30.27F
LIMON CO       CLEAR     -4  -8  83 CALM      30.19F
$$

...UNOFFICIAL OBSERVATIONS...

CITY           SKY/WX    TMP DP  RH WIND       PRES   REMARKS
COLBY KS       PTCLDY     5   1  85 CALM      30.37F
NORTON KS      CLEAR      5   0  78 CALM      30.44
SHARON SPRINGS   N/A      4  -1  79 CALM        N/A
TRENTON NEB      N/A      1  32 100 CALM        N/A
KIT CARSON CO    N/A     -6 -11  79 CALM        N/A
$$



USA.gov is the U.S. government's official web portal to all federal, state and local government web resources and services.